KB6LA Weather Reports


Display with metric or nautical units.
time (UTC)temp
F
wind
direction
speed
MPH
gust
MPH
rain 1hr
in
rain 24hr
in
rain mn
in
humidity
%
barometer
mb
20260901031542 67 246 1.0 3.0 0.00 0.00 0.00 83 1011.4
20260901031035 67 254 0.0 2.0 0.00 0.00 0.00 83 1011.4
20260901030529 68 257 1.0 4.0 0.00 0.00 0.00 83 1011.4
20260901025010 68 228 4.0 8.0 0.00 0.00 0.00 83 1011.4
20260901024504 68 233 3.0 8.0 0.00 0.00 0.00 83 1011.4
20260901023957 68 260 3.0 8.0 0.00 0.00 0.00 83 1011.1
20260901022437 68 236 4.0 8.0 0.00 0.00 0.00 82 1011.4
20260901021931 68 220 2.0 11.0 0.00 0.00 0.00 82 1011.4
20260901021424 69 233 6.0 11.0 0.00 0.00 0.00 82 1011.4
20260901020412 69 221 6.0 9.0 0.00 0.00 0.00 80 1011.4
20260901015905 69 244 5.0 10.0 0.00 0.00 0.00 80 1011.4
20260901015358 70 346 4.0 10.0 0.00 0.00 0.00 80 1011.4
20260901014851 70 234 7.0 11.0 0.00 0.00 0.00 79 1011.4
20260901014345 71 242 9.0 11.0 0.00 0.00 0.00 78 1011.4
20260901013839 71 259 7.0 10.0 0.00 0.00 0.00 79 1011.4
20260901013331 71 256 5.0 10.0 0.00 0.00 0.00 78 1011.4
20260901012825 71 265 9.0 13.0 0.00 0.00 0.00 77 1011.4
20260901012319 71 230 11.0 13.0 0.00 0.00 0.00 76 1011.4
20260901011812 71 229 5.0 11.0 0.00 0.00 0.00 77 1011.4
20260901011306 71 252 4.0 11.0 0.00 0.00 0.00 77 1011.4
20260901010800 71 258 7.0 11.0 0.00 0.00 0.00 76 1011.4
20260901005746 72 212 6.0 11.0 0.00 0.00 0.00 76 1011.4
20260901005240 72 317 6.0 11.0 0.00 0.00 0.00 78 1011.8
20260901004733 72 234 6.0 11.0 0.00 0.00 0.00 76 1011.4
20260901004227 73 253 7.0 11.0 0.00 0.00 0.00 76 1011.4
20260901003720 73 262 4.0 11.0 0.00 0.00 0.00 76 1011.4
20260901003213 73 226 5.0 11.0 0.00 0.00 0.00 76 1011.4
20260901002707 73 233 9.0 14.0 0.00 0.00 0.00 76 1011.4
20260901001147 73 238 9.0 14.0 0.00 0.00 0.00 75 1011.8
20260901000641 73 251 11.0 13.0 0.00 0.00 0.00 75 1011.8
20260901000134 73 258 7.0 13.0 0.00 0.00 0.00 75 1011.8
20260831235122 73 235 5.0 13.0 0.00 0.00 0.00 76 1011.8
20260831234614 73 128 7.0 13.0 0.00 0.00 0.00 75 1011.8
20260831233602 74 224 7.0 14.0 0.00 0.00 0.00 73 1011.8
20260831233055 75 240 6.0 14.0 0.00 0.00 0.00 71 1011.8
20260831232549 75 231 11.0 14.0 0.00 0.00 0.00 68 1011.4
20260831232043 75 274 7.0 13.0 0.00 0.00 0.00 69 1011.4
20260831231029 74 259 9.0 14.0 0.00 0.00 0.00 71 1011.4
20260831230524 75 233 11.0 14.0 0.00 0.00 0.00 71 1011.4
20260831230016 74 255 9.0 14.0 0.00 0.00 0.00 71 1011.8
20260831225510 75 204 8.0 14.0 0.00 0.00 0.00 70 1011.8
20260831225003 75 251 11.0 14.0 0.00 0.00 0.00 69 1011.8
20260831224457 75 221 11.0 14.0 0.00 0.00 0.00 68 1011.8
20260831222937 76 247 10.0 13.0 0.00 0.00 0.00 62 1011.8
20260831222431 75 221 10.0 11.0 0.00 0.00 0.00 65 1011.8
20260831221924 76 230 7.0 15.0 0.00 0.00 0.00 68 1012.1
20260831221418 75 258 7.0 15.0 0.00 0.00 0.00 70 1012.1
20260831220911 75 250 8.0 15.0 0.00 0.00 0.00 71 1012.1
20260831220405 76 230 12.0 14.0 0.00 0.00 0.00 69 1012.1
20260831215858 76 243 6.0 14.0 0.00 0.00 0.00 69 1012.1
20260831215352 76 258 10.0 14.0 0.00 0.00 0.00 67 1012.1
20260831214844 76 212 9.0 13.0 0.00 0.00 0.00 67 1012.1
20260831214338 76 236 8.0 14.0 0.00 0.00 0.00 69 1012.1
20260831213832 76 234 4.0 14.0 0.00 0.00 0.00 67 1012.1
20260831213325 76 192 8.0 14.0 0.00 0.00 0.00 70 1012.4
20260831212819 76 283 2.0 13.0 0.00 0.00 0.00 72 1012.4
20260831212313 77 227 7.0 11.0 0.00 0.00 0.00 70 1012.4
20260831211805 76 245 4.0 13.0 0.00 0.00 0.00 70 1012.4
20260831211259 77 236 8.0 13.0 0.00 0.00 0.00 71 1012.4
20260831210753 76 257 7.0 13.0 0.00 0.00 0.00 70 1012.4
20260831210246 76 234 8.0 13.0 0.00 0.00 0.00 72 1012.4
20260831205233 76 224 9.0 14.0 0.00 0.00 0.00 72 1012.4
20260831204727 76 210 6.0 14.0 0.00 0.00 0.00 72 1012.4
20260831204219 75 195 10.0 14.0 0.00 0.00 0.00 72 1012.4
20260831203713 75 269 10.0 15.0 0.00 0.00 0.00 72 1012.4
20260831203207 76 225 11.0 15.0 0.00 0.00 0.00 72 1012.4
20260831201140 76 212 7.0 14.0 0.00 0.00 0.00 71 1012.4
20260831200634 76 242 6.0 14.0 0.00 0.00 0.00 71 1012.4
20260831195114 76 261 7.0 13.0 0.00 0.00 0.00 71 1012.8
20260831194608 76 248 5.0 13.0 0.00 0.00 0.00 71 1012.8
20260831194102 76 322 6.0 13.0 0.00 0.00 0.00 72 1012.8
20260831193554 77 250 3.0 10.0 0.00 0.00 0.00 70 1012.8
20260831192542 76 249 9.0 11.0 0.00 0.00 0.00 71 1012.8
20260831192035 76 292 7.0 11.0 0.00 0.00 0.00 72 1012.8
20260831191529 76 234 8.0 10.0 0.00 0.00 0.00 73 1013.1
20260831190516 76 246 7.0 11.0 0.00 0.00 0.00 73 1013.1
20260831190009 76 233 7.0 13.0 0.00 0.00 0.00 72 1013.1
20260831185502 75 229 5.0 14.0 0.00 0.00 0.00 74 1012.8
20260831184956 75 222 7.0 14.0 0.00 0.00 0.00 75 1013.1
20260831184450 75 244 5.0 9.0 0.00 0.00 0.00 74 1012.8
20260831183943 75 215 5.0 13.0 0.00 0.00 0.00 75 1012.8
20260831183437 75 191 7.0 13.0 0.00 0.00 0.00 73 1013.1
20260831182930 75 228 8.0 9.0 0.00 0.00 0.00 74 1013.1
20260831181917 75 191 8.0 11.0 0.00 0.00 0.00 74 1013.1
20260831181410 75 252 9.0 11.0 0.00 0.00 0.00 73 1012.8
20260831180904 75 227 6.0 13.0 0.00 0.00 0.00 74 1013.1
20260831180357 75 207 4.0 13.0 0.00 0.00 0.00 73 1013.1
20260831175851 75 265 3.0 8.0 0.00 0.00 0.00 74 1013.1
20260831175345 75 281 7.0 8.0 0.00 0.00 0.00 74 1013.1
20260831174837 75 244 3.0 8.0 0.00 0.00 0.00 74 1013.1
20260831174331 75 223 2.0 9.0 0.00 0.00 0.00 74 1013.1
20260831173825 76 255 7.0 9.0 0.00 0.00 0.00 73 1013.1
20260831173319 75 310 2.0 9.0 0.00 0.00 0.00 73 1013.1
20260831172811 75 255 3.0 9.0 0.00 0.00 0.00 75 1013.1
20260831172306 74 236 3.0 13.0 0.00 0.00 0.00 75 1013.1
20260831171759 74 264 2.0 13.0 0.00 0.00 0.00 76 1013.1
20260831171252 74 222 6.0 10.0 0.00 0.00 0.00 75 1012.8
20260831170745 74 257 7.0 10.0 0.00 0.00 0.00 76 1013.1
20260831165733 74 201 6.0 9.0 0.00 0.00 0.00 76 1012.8
20260831165226 74 240 5.0 10.0 0.00 0.00 0.00 75 1012.8
20260831164719 76 234 9.0 10.0 0.00 0.00 0.00 71 1012.8
20260831164214 75 316 1.0 4.0 0.00 0.00 0.00 72 1012.8
20260831163707 75 245 1.0 9.0 0.00 0.00 0.00 72 1012.4
20260831163159 75 185 3.0 9.0 0.00 0.00 0.00 72 1012.8
20260831162653 75 207 3.0 6.0 0.00 0.00 0.00 72 1012.4
20260831162147 74 187 4.0 8.0 0.00 0.00 0.00 72 1012.4
20260831161640 74 182 5.0 8.0 0.00 0.00 0.00 72 1012.4
20260831161134 74 169 4.0 7.0 0.00 0.00 0.00 71 1012.4
20260831160627 75 173 4.0 7.0 0.00 0.00 0.00 70 1012.4
20260831160121 75 219 2.0 3.0 0.00 0.00 0.00 70 1012.4
20260831155615 74 53 2.0 6.0 0.00 0.00 0.00 72 1012.4
20260831155108 75 148 4.0 6.0 0.00 0.00 0.00 71 1012.4
20260831154055 75 111 2.0 4.0 0.00 0.00 0.00 71 1012.4
20260831153548 74 64 2.0 4.0 0.00 0.00 0.00 71 1012.4
20260831152536 74 123 2.0 4.0 0.00 0.00 0.00 73 1012.4
20260831152029 73 220 1.0 2.0 0.00 0.00 0.00 74 1012.4
20260831151523 73 192 2.0 2.0 0.00 0.00 0.00 75 1012.4
20260831150509 71 327 0.0 2.0 0.00 0.00 0.00 77 1012.4
20260831150003 71 327 1.0 1.0 0.00 0.00 0.00 78 1012.1
20260831145456 70 327 0.0 1.0 0.00 0.00 0.00 79 1012.4
20260831144950 69 327 1.0 2.0 0.00 0.00 0.00 80 1012.1
20260831143937 68 327 1.0 1.0 0.00 0.00 0.00 82 1012.1
20260831143430 68 327 1.0 2.0 0.00 0.00 0.00 83 1012.1
20260831142923 67 327 1.0 2.0 0.00 0.00 0.00 83 1012.1
20260831141911 66 327 1.0 2.0 0.00 0.00 0.00 84 1011.8
20260831141404 66 327 0.0 1.0 0.00 0.00 0.00 85 1011.8
20260831140858 66 327 0.0 1.0 0.00 0.00 0.00 85 1011.8
20260831135844 65 327 0.0 1.0 0.00 0.00 0.00 85 1011.4
20260831135338 65 327 0.0 1.0 0.00 0.00 0.00 85 1011.8
20260831134832 65 326 0.0 1.0 0.00 0.00 0.00 85 1011.4
20260831134326 65 326 1.0 1.0 0.00 0.00 0.00 85 1011.4
20260831133819 65 321 0.0 1.0 0.00 0.00 0.00 85 1011.4
20260831132806 65 321 0.0 1.0 0.00 0.00 0.00 85 1011.1
20260831132259 65 321 1.0 2.0 0.00 0.00 0.00 85 1011.1
20260831131753 65 322 1.0 3.0 0.00 0.00 0.00 85 1011.4
20260831131247 65 329 1.0 3.0 0.00 0.00 0.00 85 1011.4
20260831130740 65 316 1.0 3.0 0.00 0.00 0.00 85 1011.1
20260831130233 65 325 1.0 3.0 0.00 0.00 0.00 85 1011.1
20260831125727 65 325 1.0 2.0 0.00 0.00 0.00 85 1011.1
20260831125220 65 319 1.0 3.0 0.00 0.00 0.00 85 1011.1
20260831124714 65 337 2.0 3.0 0.00 0.00 0.00 85 1011.1
20260831124207 65 333 1.0 3.0 0.00 0.00 0.00 85 1011.1
20260831123701 65 325 1.0 3.0 0.00 0.00 0.00 85 1011.1
20260831123154 65 313 2.0 3.0 0.00 0.00 0.00 85 1011.1
20260831122648 66 327 1.0 2.0 0.00 0.00 0.00 85 1011.1
20260831122142 66 317 1.0 2.0 0.00 0.00 0.00 85 1011.1
20260831121128 66 334 2.0 2.0 0.00 0.00 0.00 85 1011.1
20260831120622 66 314 0.0 2.0 0.00 0.00 0.00 85 1011.1
20260831120116 66 320 1.0 2.0 0.00 0.00 0.00 85 1011.1
20260831115104 66 331 2.0 3.0 0.00 0.00 0.00 85 1011.1
20260831113543 67 310 0.0 2.0 0.00 0.00 0.00 84 1011.1
20260831113036 67 318 1.0 2.0 0.00 0.00 0.00 85 1011.1
20260831112530 67 324 1.0 1.0 0.00 0.00 0.00 85 1011.1
20260831112024 67 330 1.0 1.0 0.00 0.00 0.00 85 1011.1
20260831111516 67 319 0.0 3.0 0.00 0.00 0.00 85 1011.1
20260831111010 67 308 0.0 3.0 0.00 0.00 0.00 84 1011.1
20260831110504 67 318 2.0 3.0 0.00 0.00 0.00 84 1011.1
20260831105957 67 324 2.0 2.0 0.00 0.00 0.00 84 1011.4
20260831105451 67 337 1.0 2.0 0.00 0.00 0.00 84 1011.1
20260831104945 67 336 0.0 2.0 0.00 0.00 0.00 84 1011.1
20260831103932 68 336 0.0 1.0 0.00 0.00 0.00 84 1011.1
20260831103424 68 336 0.0 1.0 0.00 0.00 0.00 83 1011.1
20260831102918 68 336 0.0 1.0 0.00 0.00 0.00 84 1011.1
20260831102412 68 336 1.0 2.0 0.00 0.00 0.00 84 1011.1
20260831101905 68 336 0.0 2.0 0.00 0.00 0.00 83 1011.1
20260831101359 68 322 1.0 2.0 0.00 0.00 0.00 83 1011.1
20260831100853 68 320 1.0 2.0 0.00 0.00 0.00 83 1011.1
20260831100346 68 316 0.0 2.0 0.00 0.00 0.00 83 1011.1
20260831095840 68 322 2.0 2.0 0.00 0.00 0.00 83 1011.4
20260831095333 69 319 0.0 2.0 0.00 0.00 0.00 83 1011.4
20260831094826 69 316 1.0 2.0 0.00 0.00 0.00 83 1011.1
20260831094320 69 257 0.0 2.0 0.00 0.00 0.00 83 1011.1
20260831093814 69 247 0.0 1.0 0.00 0.00 0.00 83 1011.1
20260831093307 69 231 0.0 3.0 0.00 0.00 0.00 83 1011.1
20260831092800 69 253 0.0 4.0 0.00 0.00 0.00 82 1011.1
20260831092254 69 170 2.0 4.0 0.00 0.00 0.00 82 1011.1
20260831091240 70 359 0.0 3.0 0.00 0.00 0.00 81 1011.1
20260831090734 70 355 1.0 3.0 0.00 0.00 0.00 81 1011.1
20260831090228 70 67 2.0 4.0 0.00 0.00 0.00 80 1011.1
20260831085722 70 89 3.0 6.0 0.00 0.00 0.00 79 1011.1
20260831085215 70 158 3.0 6.0 0.00 0.00 0.00 77 1011.1
20260831084708 70 214 1.0 4.0 0.00 0.00 0.00 76 1011.1
20260831083655 70 350 0.0 6.0 0.00 0.00 0.00 75 1011.1
20260831083149 70 70 3.0 6.0 0.00 0.00 0.00 75 1011.1
20260831082642 70 72 2.0 6.0 0.00 0.00 0.00 75 1011.1
20260831081629 71 90 2.0 4.0 0.00 0.00 0.00 75 1011.1
20260831081123 71 74 2.0 4.0 0.00 0.00 0.00 75 1011.1
20260831080616 71 57 3.0 4.0 0.00 0.00 0.00 74 1011.1
20260831075604 71 34 2.0 4.0 0.00 0.00 0.00 74 1011.1
20260831075056 70 108 2.0 4.0 0.00 0.00 0.00 75 1011.1
20260831074044 70 40 3.0 3.0 0.00 0.00 0.00 75 1011.1
20260831073538 70 109 2.0 2.0 0.00 0.00 0.00 75 1011.1
20260831073031 71 141 1.0 3.0 0.00 0.00 0.00 75 1010.7
20260831072524 71 17 2.0 3.0 0.00 0.00 0.00 75 1010.7
20260831071511 70 80 1.0 3.0 0.00 0.00 0.00 76 1010.7
20260831071005 70 17 1.0 3.0 0.00 0.00 0.00 76 1010.7
20260831070459 70 11 1.0 4.0 0.00 0.00 0.00 76 1010.7
20260831065952 70 0 1.0 4.0 0.00 0.00 0.00 76 1010.7
20260831065446 70 342 0.0 3.0 0.00 0.00 0.00 77 1010.7
20260831064938 70 121 2.0 3.0 0.00 0.00 0.00 77 1010.7
20260831064432 70 147 2.0 3.0 0.00 0.00 0.00 77 1010.7
20260831063926 70 54 1.0 4.0 0.00 0.00 0.00 78 1010.7
20260831063420 70 58 3.0 4.0 0.00 0.00 0.00 79 1010.7
20260831062406 70 104 1.0 3.0 0.00 0.00 0.00 79 1010.7
20260831061900 70 116 2.0 3.0 0.00 0.00 0.00 79 1010.7
20260831061354 70 238 1.0 4.0 0.00 0.00 0.00 79 1010.7
20260831060847 70 245 0.0 4.0 0.00 0.00 0.00 80 1010.7
20260831060340 70 171 2.0 4.0 0.00 0.00 0.00 80 1010.7
20260831055834 70 224 1.0 4.0 0.00 0.00 0.00 81 1010.7
20260831055327 70 188 2.0 4.0 0.00 0.00 0.00 81 1010.7
20260831054315 70 193 2.0 3.0 0.00 0.00 0.00 82 1010.7
20260831053808 70 184 3.0 4.0 0.00 0.00 0.00 82 1010.7
20260831053302 70 192 3.0 4.0 0.00 0.00 0.00 82 1010.7
20260831052248 70 261 0.0 4.0 0.00 0.00 0.00 82 1010.7
20260831051742 70 256 0.0 4.0 0.00 0.00 0.00 82 1010.7
20260831051236 70 188 3.0 4.0 0.00 0.00 0.00 82 1010.7
20260831050729 70 156 2.0 4.0 0.00 0.00 0.00 82 1010.7
20260831050223 70 230 2.0 6.0 0.00 0.00 0.00 81 1010.7
20260831044704 71 201 2.0 4.0 0.00 0.00 0.00 80 1010.7
20260831043650 71 231 1.0 2.0 0.00 0.00 0.00 79 1010.7
20260831042131 71 231 1.0 2.0 0.00 0.00 0.00 79 1010.4
20260831041624 71 218 2.0 3.0 0.00 0.00 0.00 79 1010.7
20260831041118 71 241 1.0 3.0 0.00 0.00 0.00 79 1010.4
20260831040105 71 267 1.0 3.0 0.00 0.00 0.00 78 1010.4
20260831035559 71 215 2.0 4.0 0.00 0.00 0.00 78 1010.4
20260831035051 71 209 2.0 4.0 0.00 0.00 0.00 78 1010.4
20260831034545 71 254 1.0 3.0 0.00 0.00 0.00 78 1010.1
20260831034039 71 212 2.0 3.0 0.00 0.00 0.00 79 1010.1
20260831033532 71 197 3.0 3.0 0.00 0.00 0.00 79 1010.1
20260831033025 71 233 2.0 3.0 0.00 0.00 0.00 79 1009.7
20260831032519 71 241 2.0 4.0 0.00 0.00 0.00 79 1009.7
20260831032012 71 208 2.0 4.0 0.00 0.00 0.00 79 1010.1